Regional Weather Roundup
Issued by NWS New Orleans/Baton Rouge, LA

Home | Current Version | Previous Version | Text Only | Print | Product List | Glossary On
Versions: 1 2 3 4 5 6 7 8 9 10 11 12 13 14 15 16 17 18 19 20 21 22 23 24 25 26 27 28 29 30 31 32 33 34 35 36 37 38 39 40 41 42 43 44 45 46 47 48 49 50
004
ASUS44 KLIX 280710
RWRLIX
NEW ORLEANS REGIONAL WEATHER ROUNDUP
NATIONAL WEATHER SERVICE NEW ORLEANS LA
200 AM CDT MON JUL 28 2014

NOTE: "FAIR" INDICATES FEW OR NO CLOUDS BELOW 12,000 FEET WITH NO
      SIGNIFICANT WEATHER AND/OR OBSTRUCTIONS TO VISIBILITY.
      SKY/WX - SKY CONDITION AND SIGNIFICANT WEATHER.
      TMP - AIR TEMPERATURE.     DP    - DEWPOINT TEMPERATURE.
      RH  - RELATIVE HUMIDITY.   PRES  - PRESSURE.
      HI  - HEAT INDEX.          WCI   - WIND CHILL INDEX.

*  THESE STATIONS ARE NOT NWS OR FAA STATIONS AND ARE NOT UNDER
   NWS QUALITY CONTROL.

LAZ038-040-048-061>063-065>067-069-280800-
SOUTHEAST LOUISIANA

CITY           SKY/WX    TMP DP  RH WIND       PRES   REMARKS
N.O. AUDUBON     N/A     81  78  92 MISG        N/A
N.O. INTL ARPT PTCLDY    81  77  88 W8        30.03F
N.O. LAKEFRONT CLEAR     83  77  82 SW12      30.04F
N.O. DOWNTOWN*   N/A     82  73  74 SW3       30.04F
SLIDELL        CLEAR     83  77  82 SW5       30.02F
BATON ROUGE    CLEAR     80  75  84 SW8       30.04F
BOOTHVILLE     PTCLDY    83  77  82 W9        30.06F
BELLE CHASSE   CLEAR     82  75  79 W6        30.03F
BOGALUSA*        N/A     80  75  84 W3        30.03F
GALLIANO*      NOT AVBL
NEW ROADS*       N/A     78  75  89 SW5       30.03F
GONZALES*        N/A     79  79  99 CALM      30.04F
HAMMOND*       CLEAR     81  75  83 SW7       30.05S
HOUMA*         CLEAR     80  75  84 CALM      30.05F
PORT FOURCHON* MOSUNNY   84  75  74 W9G15     30.07F

$$

MSZ070-080>082-280800-
SOUTHERN MISSISSIPPI

CITY           SKY/WX    TMP DP  RH WIND       PRES   REMARKS
MCCOMB         CLEAR     79  75  87 SW6       30.03F
GULFPORT       CLEAR     84  77  79 W7        30.01F
BILOXI         CLEAR     82  77  83 W7        30.01F
PASCAGOULA     CLEAR     81  78  91 W3        30.01F

$$

COASTAL OBSERVATIONS
LAKE AND NEARSHORE STATIONS

STATION/POSITION TIME  TEMP    WIND        PRES    WAVE
                       AIR SEA DIR/SP/G            HT/PER
                 (UTC) (F)     (DEG/KT/KT) (MB)    (FT/S)
PASCAGOULA       0700   85     270/ 13/ 17 1015.9
WAVELAND YACHT   0700   82     260/  6/  9 1016.1
GRAND ISLE       0700   84 87  260/  8/ 11 1018.3
SOUTHWEST PASS   0700   85 84  260/ 17/ 20 1018.2
NEW CANAL        0700   83 85  240/  5/ 12 1017.6
SHELL BEACH      0700   81 82  240/  8/ 10 1017.0

OFFSHORE STATIONS

STATION/POSITION TIME  TEMP    WIND        PRES    WAVE
                       AIR SEA DIR/SP/G            HT/PER
                 (UTC) (F)     (DEG/KT/KT) (MB)    (FT/S)
64 S DAUPHIN ISL 0604   85 85  260/ 17/ 19 1017.2

$$




USA.gov is the U.S. government's official web portal to all federal, state and local government web resources and services.